Temp
-6 -7 -7 -7 -7 -7 -7 -7 -7 -7 -7 -7 -8 -9 -8 -8 -9 -9 -8 -8 -8 -7 -7 -7 -7 -7 -7 -7 -6 -6 -6 -6 -6 -6 -6 -6 -6 -6 -6 -7 -6 -6 -6 -6
-6 -7 -6 -7 -7 -7 -7 -7 -7 -7 -7 -7 -7 -8 -7 -8 -8 -8 -7 -7 -7 -7 -7 -7 -7 -6 -7 -7 -6 -7 -6 -6 -6 -6 -6 -6 -6 -6 -6 -7 -7 -6 -6 -6
-7 -7 -7 -7 -7 -7 -7 -7 -8 -8 -7 -7 -7 -8 -7 -8 -8 -8 -7 -7 -7 -7 -7 -7 -7 -6 -7 -7 -7 -7 -7 -6 -6 -6 -6 -6 -6 -6 -6 -7 -6 -6 -7 -6
-7 -7 -7 -7 -7 -7 -8 -7 -8 -8 -8 -7 -7 -7 -8 -8 -8 -7 -7 -7 -7 -7 -7 -6 -6 -7 -7 -7 -7 -7 -7 -6 -6 -6 -6 -6 -6 -5 -6 -6 -6 -6 -6 -6
-7 -7 -7 -7 -8 -7 -8 -8 -8 -8 -8 -7 -8 -7 -8 -8 -8 -8 -7 -7 -7 -7 -7 -6 -6 -6 -7 -7 -7 -7 -7 -6 -7 -6 -6 -6 -6 -6 -6 -6 -6 -6 -6 -6
-7 -7 -7 -7 -8 -8 -8 -8 -9 -8 -8 -8 -8 -7 -8 -8 -8 -8 -7 -8 -7 -7 -7 -6 -7 -7 -8 -7 -7 -8 -7 -7 -7 -7 -6 -6 -6 -6 -6 -6 -6 -6 -6 -6
-7 -7 -7 -8 -8 -9 -9 -9 -9 -9 -9 -8 -8 -7 -8 -8 -8 -8 -8 -8 -8 -7 -7 -7 -7 -7 -7 -7 -7 -7 -8 -8 -7 -7 -7 -6 -6 -6 -6 -6 -6 -6 -6 -6
-8 -8 -8 -8 -8 -8 -9 -9 -9 -9 -9 -8 -9 -7 -8 -8 -8 -8 -8 -8 -8 -8 -8 -8 -7 -7 -7 -7 -7 -7 -7 -7 -7 -7 -7 -7 -6 -6 -6 -7 -7 -7 -6 -6
-9 -9 -10 -10 -10 -9 -9 -10 -10 -10 -10 -9 -9 -8 -8 -9 -8 -8 -9 -8 -8 -8 -8 -8 -8 -8 -7 -7 -7 -7 -7 -8 -7 -7 -7 -7 -7 -6 -6 -6 -6 -6 -6 -6
-9 -8 -10 -10 -10 -10 -10 -10 -10 -10 -10 -9 -9 -9 -8 -8 -9 -9 -9 -8 -8 -8 -8 -8 -8 -7 -8 -7 -7 -7 -8 -8 -7 -7 -7 -7 -7 -7 -7 -7 -6 -6 -6 -6
-8 -8 -8 -10 -10 -10 -11 -11 -10 -10 -10 -10 -10 -9 -9 -9 -9 -9 -9 -9 -8 -8 -8 -8 -8 -7 -7 -8 -8 -7 -7 -8 -8 -7 -7 -7 -7 -7 -7 -7 -7 -7 -7 -7
-8 -8 -7 -7 -9 -10 -10 -10 -10 -10 -10 -10 -10 -8 -9 -9 -9 -9 -9 -9 -8 -9 -8 -8 -8 -8 -8 -8 -8 -8 -7 -7 -7 -8 -7 -7 -7 -7 -7 -7 -7 -7 -7 -7
-8 -8 -8 -7 -8 -8 -9 -9 -10 -10 -10 -10 -10 -9 -9 -10 -10 -10 -9 -9 -9 -9 -9 -8 -8 -8 -8 -8 -7 -8 -8 -8 -7 -7 -7 -7 -7 -7 -8 -8 -8 -8 -8 -8
-9 -9 -9 -9 -9 -9 -9 -9 -9 -9 -10 -10 -10 -10 -10 -10 -10 -10 -10 -10 -9 -9 -10 -9 -9 -9 -8 -8 -8 -8 -8 -7 -7 -7 -7 -7 -7 -7 -7 -7 -8 -8 -8 -8
-10 -10 -10 -10 -10 -10 -10 -10 -10 -9 -10 -10 -9 -10 -10 -10 -10 -10 -10 -10 -10 -10 -10 -10 -9 -9 -9 -8 -8 -8 -8 -8 -7 -7 -7 -7 -7 -7 -7 -7 -8 -8 -8 -8
-10 -10 -10 -10 -10 -10 -10 -10 -10 -10 -10 -11 -10 -9 -10 -10 -10 -10 -10 -10 -10 -10 -10 -10 -10 -9 -9 -9 -8 -8 -8 -8 -8 -8 -7 -8 -8 -7 -8 -7 -7 -8 -8 -7
-10 -10 -10 -10 -10 -10 -10 -11 -11 -10 -10 -11 -11 -10 -11 -11 -11 -10 -10 -10 -10 -10 -10 -10 -10 -9 -10 -9 -9 -8 -8 -8 -8 -8 -8 -8 -8 -8 -8 -7 -7 -7 -8 -7
-10 -11 -10 -10 -10 -10 -10 -10 -10 -11 -11 -11 -11 -11 -10 -10 -10 -10 -10 -9 -10 -10 -10 -10 -10 -10 -9 -9 -9 -8 -8 -9 -8 -8 -8 -8 -8 -8 -8 -7 -7 -7 -8 -8
-11 -11 -10 -10 -10 -10 -11 -11 -11 -11 -12 -12 -12 -11 -11 -11 -11 -10 -10 -9 -9 -10 -10 -10 -10 -10 -9 -9 -9 -8 -8 -8 -8 -9 -8 -8 -8 -8 -8 -7 -7 -7 -7 -8
-11 -11 -11 -11 -11 -10 -11 -11 -12 -12 -12 -12 -12 -12 -11 -11 -11 -10 -10 -9 -9 -10 -10 -10 -10 -10 -9 -9 -9 -9 -8 -8 -8 -8 -8 -8 -8 -8 -7 -7 -7 -7 -7 -7
-11 -11 -11 -11 -11 -11 -11 -12 -12 -13 -13 -12 -13 -12 -12 -12 -11 -11 -10 -9 -9 -9 -10 -10 -10 -10 -10 -9 -9 -9 -9 -9 -8 -8 -8 -8 -8 -7 -8 -8 -8 -8 -7 -8
-12 -12 -12 -12 -13 -12 -13 -13 -13 -13 -14 -14 -14 -13 -13 -12 -12 -11 -10 -10 -9 -9 -10 -11 -10 -10 -10 -10 -9 -9 -10 -9 -8 -8 -8 -9 -8 -7 -7 -8 -9 -8 -8 -8
-12 -12 -12 -12 -12 -13 -14 -14 -15 -14 -14 -15 -14 -14 -13 -13 -12 -12 -11 -10 -9 -9 -9 -10 -10 -10 -10 -10 -9 -10 -10 -9 -8 -8 -8 -8 -8 -8 -8 -8 -8 -8 -8 -8
-13 -12 -11 -12 -14 -14 -15 -15 -15 -16 -15 -15 -15 -14 -14 -14 -13 -12 -12 -11 -10 -9 -9 -9 -10 -10 -10 -10 -10 -9 -9 -9 -8 -9 -8 -8 -8 -8 -8 -8 -8 -8 -8 -8
-13 -12 -12 -13 -14 -14 -15 -15 -16 -16 -16 -16 -16 -15 -15 -14 -14 -13 -12 -11 -10 -9 -10 -10 -10 -10 -10 -10 -10 -10 -9 -9 -9 -8 -8 -8 -8 -8 -9 -8 -8 -8 -8 -8
-12 -13 -12 -13 -14 -14 -15 -15 -16 -17 -18 -17 -16 -16 -15 -15 -14 -13 -13 -11 -10 -10 -10 -10 -10 -10 -10 -10 -9 -10 -10 -9 -9 -9 -8 -8 -8 -8 -8 -8 -8 -8 -9 -9
Height
5905 5905 5904 5905 5905 5905 5905 5904 5903 5900 5901 5899 5897 5895 5893 5892 5891 5889 5888 5886 5885 5883 5882 5882 5881 5880 5882 5882 5881 5882 5884 5885 5886 5886 5887 5889 5890 5892 5895 5898 5899 5900 5901 5902
5902 5901 5902 5903 5903 5902 5902 5900 5899 5900 5899 5899 5897 5893 5891 5890 5889 5888 5887 5884 5883 5881 5881 5880 5879 5881 5881 5879 5879 5880 5881 5883 5883 5884 5885 5886 5888 5890 5894 5897 5899 5900 5900 5901
5898 5898 5899 5899 5899 5900 5899 5898 5897 5897 5897 5896 5896 5893 5891 5889 5888 5885 5884 5884 5882 5879 5878 5879 5880 5880 5879 5877 5877 5878 5879 5881 5881 5882 5882 5883 5885 5888 5892 5895 5898 5899 5900 5901
5894 5894 5895 5895 5895 5896 5896 5894 5895 5894 5894 5895 5893 5893 5890 5889 5886 5884 5883 5881 5880 5878 5876 5878 5878 5878 5877 5876 5876 5877 5878 5879 5880 5880 5879 5880 5882 5885 5889 5893 5897 5899 5899 5899
5891 5891 5891 5892 5892 5892 5893 5890 5891 5891 5891 5892 5889 5890 5889 5888 5886 5885 5882 5879 5877 5875 5875 5876 5875 5874 5875 5874 5875 5876 5878 5878 5879 5879 5878 5879 5882 5885 5889 5893 5895 5897 5899 5900
5886 5887 5888 5888 5886 5887 5889 5888 5887 5888 5888 5890 5887 5888 5888 5887 5886 5884 5881 5878 5876 5873 5873 5873 5873 5871 5872 5873 5874 5875 5878 5879 5878 5879 5879 5879 5881 5883 5886 5890 5893 5896 5898 5899
5883 5883 5884 5885 5884 5882 5883 5882 5883 5886 5885 5886 5884 5884 5885 5884 5884 5882 5880 5878 5876 5873 5871 5871 5871 5871 5871 5872 5874 5876 5876 5877 5878 5879 5880 5879 5880 5883 5885 5888 5890 5893 5896 5898
5881 5881 5881 5880 5879 5878 5878 5879 5880 5879 5881 5883 5881 5881 5881 5881 5881 5880 5878 5876 5874 5872 5871 5870 5869 5868 5869 5870 5871 5873 5875 5876 5877 5878 5879 5880 5881 5882 5884 5886 5889 5891 5894 5897
5876 5878 5876 5875 5876 5876 5875 5875 5876 5876 5876 5877 5879 5879 5878 5877 5877 5878 5876 5874 5873 5871 5869 5868 5868 5868 5868 5868 5869 5870 5871 5873 5875 5876 5878 5879 5880 5882 5883 5885 5887 5890 5892 5894
5870 5873 5873 5872 5871 5872 5871 5872 5873 5872 5871 5872 5874 5875 5875 5874 5875 5875 5874 5874 5873 5870 5867 5866 5865 5865 5866 5866 5867 5867 5868 5871 5873 5874 5876 5878 5880 5881 5883 5884 5886 5888 5890 5892
5863 5865 5869 5868 5866 5866 5866 5866 5867 5867 5868 5866 5867 5871 5871 5872 5872 5872 5872 5873 5872 5870 5867 5865 5864 5863 5862 5863 5864 5864 5866 5867 5869 5872 5874 5876 5877 5878 5880 5882 5884 5887 5888 5890
5856 5856 5857 5861 5860 5860 5860 5860 5860 5859 5860 5859 5860 5864 5866 5867 5868 5869 5869 5869 5869 5868 5866 5864 5863 5862 5860 5860 5860 5861 5863 5864 5866 5869 5871 5874 5875 5876 5877 5879 5880 5883 5885 5887
5848 5848 5851 5851 5849 5849 5851 5852 5853 5852 5851 5851 5853 5856 5858 5861 5864 5864 5865 5865 5866 5866 5864 5862 5861 5860 5860 5858 5858 5858 5859 5860 5862 5866 5868 5871 5872 5873 5874 5876 5877 5879 5882 5885
5839 5840 5841 5842 5842 5842 5840 5840 5842 5840 5842 5843 5845 5848 5852 5854 5856 5859 5859 5859 5860 5861 5861 5859 5858 5857 5857 5855 5854 5853 5853 5855 5858 5860 5864 5867 5869 5870 5872 5874 5875 5877 5880 5882
5829 5831 5830 5829 5830 5830 5831 5833 5833 5830 5829 5830 5837 5837 5844 5845 5847 5850 5851 5852 5852 5855 5856 5855 5854 5854 5853 5853 5853 5852 5851 5850 5852 5855 5858 5861 5864 5866 5869 5871 5873 5875 5876 5878
5820 5819 5819 5818 5819 5817 5817 5821 5821 5821 5820 5818 5823 5825 5831 5834 5836 5838 5840 5844 5846 5848 5850 5851 5850 5850 5849 5849 5849 5849 5849 5847 5847 5849 5851 5855 5859 5863 5865 5868 5871 5873 5873 5875
5811 5810 5807 5807 5808 5806 5806 5808 5807 5807 5808 5808 5809 5813 5814 5819 5822 5825 5830 5834 5838 5839 5842 5845 5845 5846 5844 5845 5845 5845 5845 5845 5844 5845 5847 5851 5855 5859 5860 5862 5864 5866 5866 5869
5802 5799 5797 5797 5795 5794 5794 5793 5794 5794 5794 5793 5795 5797 5799 5804 5808 5812 5819 5824 5828 5831 5834 5837 5840 5840 5842 5842 5841 5841 5842 5841 5840 5842 5844 5847 5850 5852 5855 5856 5856 5859 5860 5861
5791 5788 5786 5784 5783 5784 5782 5781 5781 5780 5780 5781 5783 5785 5788 5791 5797 5800 5806 5813 5818 5823 5826 5830 5833 5834 5836 5837 5838 5838 5839 5839 5838 5841 5840 5840 5843 5846 5849 5853 5857 5857 5852 5857
5781 5779 5777 5774 5772 5772 5772 5771 5771 5769 5767 5769 5771 5774 5776 5779 5784 5789 5795 5802 5807 5813 5818 5822 5826 5828 5831 5832 5834 5834 5835 5835 5838 5837 5835 5835 5837 5841 5845 5850 5853 5854 5854 5854
5770 5767 5764 5761 5760 5761 5761 5759 5756 5754 5756 5754 5757 5761 5764 5768 5772 5779 5784 5790 5797 5803 5809 5813 5817 5820 5824 5826 5828 5828 5829 5831 5834 5833 5832 5831 5835 5838 5834 5835 5821 5844 5847 5848
5760 5756 5754 5751 5749 5749 5748 5743 5741 5738 5739 5742 5743 5746 5751 5755 5759 5767 5774 5780 5787 5794 5800 5805 5808 5811 5815 5818 5821 5823 5823 5823 5827 5829 5830 5831 5833 5835 5834 5834 5838 5841 5842 5844
5748 5746 5742 5742 5740 5735 5730 5728 5725 5722 5723 5726 5729 5733 5737 5743 5747 5754 5762 5768 5776 5784 5791 5796 5799 5803 5808 5811 5814 5815 5816 5818 5820 5824 5826 5827 5828 5832 5834 5836 5838 5840 5842 5844
5737 5731 5731 5730 5731 5722 5718 5714 5709 5706 5708 5710 5713 5718 5722 5729 5734 5740 5749 5756 5764 5772 5780 5785 5789 5794 5799 5804 5807 5809 5812 5816 5817 5819 5823 5825 5826 5829 5830 5833 5837 5838 5841 5842
5724 5722 5721 5720 5715 5709 5707 5699 5694 5692 5692 5694 5698 5702 5707 5715 5722 5728 5738 5746 5754 5762 5769 5775 5780 5785 5789 5794 5799 5801 5805 5807 5810 5814 5818 5822 5824 5825 5826 5829 5830 5833 5835 5837
5715 5714 5709 5707 5703 5700 5696 5689 5682 5679 5678 5678 5682 5690 5696 5703 5711 5717 5727 5736 5743 5750 5758 5765 5772 5776 5781 5786 5790 5793 5797 5801 5804 5807 5811 5815 5820 5821 5820 5823 5826 5829 5830 5832
Wind_Speed
8 8 10 11 10 11 11 11 11 15 16 12 8 8 11 9 6 5 7 12 13 13 15 14 16 14 13 13 13 13 11 11 9 9 9 9 12 15 17 14 12 12 9 8
11 13 14 12 12 12 12 11 14 14 15 14 11 12 14 10 10 11 9 9 13 18 16 17 18 11 12 11 8 9 12 11 9 8 8 10 13 16 15 16 14 10 7 5
13 15 14 14 14 14 13 13 13 14 14 17 13 11 14 12 11 15 16 12 16 16 18 12 12 10 13 10 7 7 10 11 10 9 10 14 16 19 14 17 15 11 8 10
14 15 14 15 15 14 11 15 12 15 17 18 17 10 9 10 13 15 12 13 17 14 15 13 12 12 15 13 9 8 10 11 10 9 7 12 17 20 19 18 13 9 9 9
17 15 14 12 13 15 11 17 15 16 18 20 19 14 9 13 13 8 7 4 7 3 8 11 12 13 15 14 12 8 10 11 10 10 8 11 17 16 14 14 14 13 12 14
20 19 17 16 17 16 16 17 19 18 20 17 17 15 9 7 6 1 4 4 8 9 7 9 7 6 13 14 14 6 10 9 10 10 10 11 18 19 17 15 14 16 15 15
18 19 17 17 16 19 19 22 23 21 20 17 18 15 12 9 7 4 2 4 5 9 10 9 5 6 10 12 13 10 10 9 12 12 13 11 13 14 12 11 15 17 19 18
17 19 19 20 22 23 26 26 25 26 22 15 15 15 7 16 9 12 9 6 5 8 8 5 8 9 10 11 12 12 8 8 12 13 14 14 13 12 13 14 15 15 15 16
16 13 16 18 19 24 24 24 24 25 24 21 16 14 9 17 17 15 15 14 9 7 10 7 6 8 10 8 7 9 11 10 13 13 15 15 16 15 14 13 17 17 16 16
21 16 19 20 20 21 27 28 25 26 28 27 21 14 14 16 13 14 20 19 13 9 10 11 9 4 9 8 6 7 8 14 11 14 15 16 16 15 14 15 15 17 17 18
22 21 17 23 25 26 26 28 29 31 32 33 31 20 16 17 17 13 16 15 10 10 10 11 12 10 5 5 7 8 8 12 14 16 18 18 17 16 16 16 16 17 17 19
26 25 23 20 23 27 31 32 32 32 32 31 32 23 17 16 22 22 16 17 12 10 13 12 13 11 11 8 7 8 8 10 16 15 17 19 18 16 16 16 16 17 17 20
30 31 29 29 34 33 31 31 33 36 36 36 34 29 24 18 17 20 22 19 17 18 13 14 15 12 11 9 7 7 12 13 16 18 17 19 18 16 16 16 16 16 16 17
35 33 33 33 34 33 36 36 34 36 38 40 40 35 32 27 17 19 24 25 20 17 7 9 10 10 11 9 10 9 9 14 18 19 19 20 21 17 17 18 18 17 15 16
38 35 36 36 35 36 35 34 36 40 42 40 39 41 31 28 27 20 23 24 23 19 12 11 8 11 11 11 10 9 8 8 16 17 20 23 22 20 19 21 22 19 18 20
38 38 38 38 36 38 39 35 34 38 41 42 37 38 35 31 29 28 27 26 24 21 19 14 13 13 13 16 13 10 11 11 13 20 21 24 23 23 22 24 22 21 22 21
35 35 37 37 34 37 39 35 36 37 38 41 38 37 38 36 38 36 32 31 24 27 24 18 20 19 10 11 12 10 8 9 12 18 19 19 20 24 22 21 23 24 23 22
32 35 38 37 38 38 36 36 37 37 38 39 38 36 41 36 38 42 38 35 30 26 26 25 23 24 20 11 8 7 8 4 6 7 11 15 18 23 22 20 22 23 25 28
33 32 35 37 37 34 32 34 35 35 35 36 35 37 39 39 33 35 38 36 36 32 24 27 27 25 24 18 13 13 11 10 7 8 12 19 23 18 17 17 22 19 18 24
33 33 36 37 34 35 33 36 35 34 38 35 35 35 38 39 36 35 34 34 35 36 28 28 33 28 27 26 24 20 17 13 9 2 4 9 13 17 19 18 23 27 16 14
32 35 36 36 39 39 37 40 40 41 40 38 36 35 37 38 39 35 35 34 33 35 32 30 31 34 29 29 28 20 21 17 15 8 6 8 11 18 25 21 11 10 7 1
32 35 34 38 42 41 41 41 41 43 40 39 38 37 36 38 40 36 37 37 34 32 37 34 33 35 30 29 26 22 22 22 16 13 12 12 13 14 16 15 8 8 5 3
32 34 38 39 38 39 38 36 39 43 44 39 39 39 38 36 38 37 37 37 37 34 32 39 37 36 30 28 26 21 26 27 23 17 16 15 14 16 16 13 10 6 6 6
30 37 38 38 32 35 33 39 42 44 44 44 41 41 41 37 38 38 36 38 39 39 34 36 41 41 33 30 26 22 21 28 26 23 23 22 20 19 16 14 12 10 9 8
35 37 39 33 32 36 31 38 43 44 41 40 38 36 41 39 39 40 36 38 40 40 36 39 40 40 36 35 34 31 31 27 30 29 27 24 21 19 18 16 14 13 12 13
36 34 34 30 30 30 31 34 32 27 32 34 38 36 36 37 38 40 37 38 41 41 40 41 42 42 42 40 39 36 32 30 33 32 31 28 26 24 20 17 16 15 15 15
Wind_Direction
293 288 278 299 313 313 316 327 336 338 353 341 329 297 276 270 280 247 266 270 279 271 269 249 249 234 231 249 249 249 248 239 226 217 219 206 208 212 210 181 170 167 181 205
276 270 287 298 298 303 306 312 321 325 339 339 331 283 285 260 273 271 265 274 284 277 277 274 262 244 233 238 237 248 240 239 235 232 228 209 192 200 200 175 167 174 180 156
276 276 285 288 289 293 299 297 310 312 320 325 324 294 284 265 260 267 264 294 298 286 272 285 263 244 232 229 212 224 229 234 236 247 243 213 198 199 199 192 186 191 196 187
261 271 280 285 287 291 289 283 293 296 307 316 312 304 266 261 268 282 309 301 301 288 269 283 283 260 242 239 221 222 230 231 229 237 225 202 199 201 198 194 191 201 206 206
262 265 269 276 277 278 270 284 284 288 295 313 308 320 258 261 279 329 322 335 352 289 294 301 300 268 238 239 237 227 229 220 218 216 212 202 186 187 198 203 208 215 203 190
263 268 268 267 266 272 279 269 269 273 285 301 302 312 235 266 276 287 1 312 305 291 284 305 300 247 234 239 234 254 250 240 221 217 203 197 197 190 193 206 203 200 204 195
266 272 275 271 265 267 263 261 264 267 279 297 297 303 232 251 200 225 341 308 306 294 285 280 250 233 257 257 255 267 288 236 225 215 209 192 184 193 190 206 204 199 199 199
280 279 278 270 257 252 257 259 266 274 281 283 290 300 245 226 237 220 255 270 307 319 307 256 252 226 224 242 258 264 265 241 234 219 207 205 195 196 201 187 188 187 199 211
266 263 273 267 272 267 258 260 262 269 279 287 284 294 280 227 238 243 243 254 262 281 290 300 261 253 242 242 243 246 254 242 232 225 212 206 213 212 220 214 210 209 205 208
264 251 238 256 268 267 264 262 263 267 275 282 285 282 286 229 226 247 246 247 251 268 285 305 314 294 279 254 254 255 246 234 241 232 220 212 215 216 210 218 218 216 209 212
260 258 238 236 244 256 262 266 268 271 270 274 279 278 267 246 214 220 232 243 262 276 284 282 310 311 313 257 251 260 241 232 243 245 227 217 216 222 222 216 224 223 217 218
282 283 280 265 251 251 249 255 261 265 270 269 269 268 265 262 244 228 237 242 252 279 275 279 290 300 295 286 278 261 246 244 237 241 235 223 221 220 226 229 224 231 229 218
279 278 278 277 282 278 262 252 255 258 259 265 265 268 265 260 252 237 235 238 254 265 276 275 278 303 298 289 285 250 245 242 225 232 239 227 216 219 220 229 229 231 236 237
275 276 275 274 270 272 276 280 276 266 256 258 262 262 264 264 241 246 234 236 241 254 246 270 282 282 281 292 304 273 265 256 236 232 231 238 229 222 226 226 228 229 233 239
274 274 274 275 274 273 270 266 269 273 276 265 257 261 257 262 247 247 237 233 243 240 231 255 260 258 279 284 279 282 257 243 233 226 224 232 227 229 234 230 227 227 228 234
274 278 277 276 279 278 277 274 269 265 268 271 270 260 259 252 250 248 242 228 231 228 233 249 257 253 278 286 267 263 249 228 222 225 226 227 235 237 235 241 239 235 231 238
278 278 277 279 279 277 279 279 272 267 264 266 263 255 255 245 245 248 243 228 223 229 232 238 260 264 248 252 258 257 264 247 225 214 236 241 250 239 233 238 234 234 236 238
279 278 280 282 281 282 284 281 277 272 266 261 260 252 248 246 238 241 239 231 224 223 230 232 238 258 266 240 257 252 261 269 257 207 224 217 225 235 242 237 229 232 239 241
284 281 283 284 285 285 284 286 286 283 273 264 256 252 248 247 239 237 237 232 228 224 223 223 225 249 258 243 257 261 249 245 246 310 262 233 220 212 231 235 243 247 249 243
284 283 282 282 276 277 278 285 285 278 275 270 261 251 247 246 241 236 235 231 230 223 222 217 221 236 245 259 260 264 250 234 238 186 209 242 220 222 230 254 254 265 260 270
282 284 283 278 275 276 285 288 284 276 265 259 257 252 247 242 241 232 231 230 226 222 217 211 220 230 236 250 258 254 253 228 220 195 204 230 209 212 223 228 198 211 235 73
283 281 278 276 280 287 290 281 274 272 270 260 253 246 244 243 240 231 227 226 221 219 214 216 218 225 227 242 248 244 254 237 226 202 201 208 215 204 210 237 234 203 184 181
285 280 279 284 293 295 284 276 271 267 265 260 252 247 240 238 240 236 225 221 221 218 217 217 225 224 223 236 239 243 241 234 224 208 210 210 213 208 195 195 205 225 240 246
284 280 284 291 301 285 283 284 278 272 267 259 249 242 239 232 236 237 224 220 217 219 215 218 217 219 224 235 233 234 239 240 232 220 215 209 207 206 203 202 210 223 249 268
282 285 292 301 291 287 292 285 281 279 269 257 248 238 234 228 227 233 223 216 213 215 211 212 214 217 221 228 233 240 238 243 237 231 227 222 219 217 219 221 226 239 253 262
290 300 298 296 291 292 296 291 294 296 273 261 242 234 227 223 221 226 220 213 210 211 209 210 217 216 222 227 230 230 236 244 247 233 231 229 229 225 225 234 242 250 254 261